"Pseudo-MPEC" for P11XV40

Created 2024 Sep 11 1:22:09 UT using Find_Orb

Click here for an explanation of pseudo-MPECs

 
 Astrometry: 
     P11XV40  C2024 08 01.47583022 21 57.006-47 06 46.19   ~94B7 21.30wXNEOCPF51
     P11XV40  C2024 08 01.48359622 21 55.985-47 06 44.34   ~94B7 21.26wXNEOCPF51
     P11XV40  C2024 08 01.49906422 21 53.958-47 06 39.98   ~94B7 21.00wXNEOCPF51
     P11XV40* C2024 09 04.34181721 07 57.489-37 16 01.80   ~94A7 20.84wXNEOCPF51
     P11XV40  C2024 09 04.35269121 07 56.422-37 15 43.26   ~94A7 20.71wXNEOCPF51
     P11XV40  C2024 09 04.37440021 07 54.291-37 15 06.02   ~94A7 20.30wXNEOCPF51
     P11XV40 -C2024 09 06.38077 21 05 00.51 -36 17 15.8    ~96Fq 21.0 RoNEOCPE10
     P11XV40 -C2024 09 06.38473 21 05 00.19 -36 17 09.9    ~96Fq 20.6 RoNEOCPE10

Station data:
(E10) Siding Spring-Faulkes Telescope South  (S31.272803 E149.070850)
   Australia/NSW.  Observers P. Breitenstein, L. Broering. Measurer P.
   Breitenstein. 2.0-m Ritchey-Chrétien + CCD.
(F51) Pan-STARRS 1, Haleakala  (N20.707234 W156.255910)  US/Hawaii.
   Observers J. Bulger, T. Lowe, A. Schultz, M. Willman. Measurers K.
   Chambers, S. Chastel, T. de Boer, L. Denneau, J. Fairlamb, H. Flewelling,
   M. Huber, C.-C. Lin, E. Magnier, Y. Ramanjooloo, R. Wainscoat, R. Weryk.
   1.8-m Ritchey-Chrétien + CCD.

Orbital elements:  P11XV40
   Perihelion 2024 Nov 18.33006 +/- 0.027 TT =  7:55:17 (JD 2460632.83006)
Epoch 2024 Sep  6.0 TT = JDT 2460559.5   Earth MOID: 0.5560      AutoNEOCP
M 331.01985301 +/- 0.012            (J2000 ecliptic)
n   0.39520145 +/- 0.000239         Peri.   17.95778 +/- 0.021
a   1.83903654 +/- 0.000743         Node   349.45658 +/- 0.011
e   0.1548431 +/- 0.000232          Incl.   22.70953 +/- 0.013
P   2.494/910.911d         H 19.53  G  0.15   U  7.1
q 1.55427437 +/- 0.000311    Q 2.12379872 +/- 0.00125
From 8 observations 2024 Aug. 1-Sept. 6; mean residual 0".19
Residuals in arcseconds: 
240801 F51  .06+  .14+    240904 F51  .09+  .12-    240906 E10  .14-  .44+    
240801 F51  .01-  .12-    240904 F51  .03+  .06-    240906 E10  .14+  .45-    
240801 F51  .05-  .02-    240904 F51  .11-  .18+    

Ephemerides (geocentric):
Date (UTC) HH   RA             Dec           delta  r     elong  mag " sig PA
---- --------  ------------   ------------  ------ ------ -----  --- --------
2024 09 11 01  20 59 21.589   -33 59 18.00  .70820 1.5966 136.5 21.0 1.42  60
2024 09 11 02  20 59 18.988   -33 58 02.87  .70835 1.5966 136.5 21.0 1.43  60
2024 09 11 03  20 59 16.395   -33 56 47.71  .70850 1.5965 136.4 21.0 1.44  60
2024 09 11 04  20 59 13.809   -33 55 32.55  .70865 1.5965 136.4 21.0 1.45  60
2024 09 11 05  20 59 11.231   -33 54 17.37  .70880 1.5964 136.4 21.0 1.46  60
2024 09 11 06  20 59 08.660   -33 53 02.17  .70895 1.5964 136.3 21.0 1.47  60
2024 09 11 07  20 59 06.096   -33 51 46.96  .70911 1.5963 136.3 21.0 1.48  60
2024 09 11 08  20 59 03.540   -33 50 31.74  .70926 1.5963 136.3 21.0 1.49  60
2024 09 11 09  20 59 00.992   -33 49 16.50  .70941 1.5962 136.2 21.0 1.50  60
2024 09 11 10  20 58 58.451   -33 48 01.25  .70956 1.5962 136.2 21.0 1.51  61
2024 09 11 11  20 58 55.917   -33 46 45.98  .70972 1.5961 136.2 21.0 1.52  61
2024 09 11 12  20 58 53.391   -33 45 30.70  .70987 1.5961 136.1 21.0 1.54  61
2024 09 11 13  20 58 50.872   -33 44 15.41  .71002 1.5960 136.1 21.0 1.55  61
2024 09 11 14  20 58 48.361   -33 43 00.10  .71018 1.5960 136.1 21.0 1.56  61
2024 09 11 15  20 58 45.857   -33 41 44.78  .71033 1.5959 136.0 21.0 1.57  61
2024 09 11 16  20 58 43.360   -33 40 29.45  .71049 1.5959 136.0 21.0 1.58  61
2024 09 11 17  20 58 40.871   -33 39 14.10  .71064 1.5958 136.0 21.0 1.59  61
2024 09 11 18  20 58 38.390   -33 37 58.74  .71080 1.5958 135.9 21.0 1.60  61
2024 09 11 19  20 58 35.916   -33 36 43.37  .71095 1.5957 135.9 21.0 1.61  61
2024 09 11 20  20 58 33.449   -33 35 27.98  .71111 1.5957 135.9 21.0 1.62  61
2024 09 11 21  20 58 30.990   -33 34 12.58  .71127 1.5956 135.8 21.0 1.63  61
2024 09 11 22  20 58 28.538   -33 32 57.17  .71142 1.5956 135.8 21.0 1.64  61
2024 09 11 23  20 58 26.093   -33 31 41.75  .71158 1.5955 135.8 21.0 1.65  61
2024 09 12 00  20 58 23.656   -33 30 26.31  .71174 1.5955 135.7 21.0 1.67  61
2024 09 12 01  20 58 21.226   -33 29 10.86  .71190 1.5954 135.7 21.0 1.68  61
2024 09 12 02  20 58 18.804   -33 27 55.40  .71205 1.5954 135.7 21.0 1.69  61
2024 09 12 03  20 58 16.389   -33 26 39.93  .71221 1.5953 135.6 21.0 1.70  61
2024 09 12 04  20 58 13.982   -33 25 24.45  .71237 1.5953 135.6 21.0 1.71  61
2024 09 12 05  20 58 11.582   -33 24 08.95  .71253 1.5952 135.6 21.0 1.72  61
2024 09 12 06  20 58 09.189   -33 22 53.44  .71269 1.5952 135.5 21.0 1.73  61
2024 09 12 07  20 58 06.804   -33 21 37.92  .71285 1.5951 135.5 21.0 1.74  61
2024 09 12 08  20 58 04.426   -33 20 22.39  .71301 1.5951 135.5 21.0 1.75  61
2024 09 12 09  20 58 02.055   -33 19 06.85  .71317 1.5950 135.4 21.0 1.77  61
2024 09 12 10  20 57 59.692   -33 17 51.30  .71333 1.5950 135.4 21.0 1.78  62
2024 09 12 11  20 57 57.337   -33 16 35.74  .71349 1.5949 135.4 21.0 1.79  62
2024 09 12 12  20 57 54.988   -33 15 20.16  .71365 1.5949 135.3 21.0 1.80  62
2024 09 12 13  20 57 52.647   -33 14 04.58  .71381 1.5948 135.3 21.0 1.81  62
2024 09 12 14  20 57 50.314   -33 12 48.98  .71397 1.5948 135.3 21.0 1.82  62
2024 09 12 15  20 57 47.988   -33 11 33.37  .71413 1.5947 135.2 21.0 1.83  62
2024 09 12 16  20 57 45.669   -33 10 17.76  .71429 1.5947 135.2 21.0 1.84  62
2024 09 12 17  20 57 43.357   -33 09 02.13  .71445 1.5947 135.2 21.0 1.86  62
2024 09 12 18  20 57 41.053   -33 07 46.49  .71462 1.5946 135.1 21.0 1.87  62
2024 09 12 19  20 57 38.757   -33 06 30.85  .71478 1.5946 135.1 21.0 1.88  62
2024 09 12 20  20 57 36.467   -33 05 15.19  .71494 1.5945 135.1 21.0 1.89  62
2024 09 12 21  20 57 34.185   -33 03 59.52  .71510 1.5945 135.0 21.0 1.90  62
2024 09 12 22  20 57 31.911   -33 02 43.85  .71527 1.5944 135.0 21.0 1.91  62
2024 09 12 23  20 57 29.643   -33 01 28.16  .71543 1.5944 135.0 21.0 1.92  62
2024 09 13 00  20 57 27.383   -33 00 12.46  .71560 1.5943 134.9 21.0 1.93  62